Location: Andershausen
(51.8462°N, 9.8595°E)
Time: 11:03:20
(UTC+00:00)

USA 215 - Pass Details

Date: 18 November 2025
Orbit: 1101 x 1106 km, 123.0° (Epoch: 02 December)

Event Time Altitude Azimuth Distance (km) Brightness Sun altitude
Rises 16:02:03 0° 119° (ESE) 3,917 5.8 -5.8°
Reaches altitude 10° 16:04:31 10° 120° (ESE) 2,962 5.2 -6.1°
Maximum altitude 16:11:06 84° 209° (SSW) 1,117 3.4 -7.1°
Drops below altitude 10° 16:17:41 10° 299° (WNW) 2,974 6.1 -8.0°
Sets 16:20:11 0° 300° (WNW) 3,934 6.8 -8.4°
